Tracking 23762 objects as of 19-Oct-2021
HD Live streaming from Space Station
objects crossing your sky now

ACRUX 1

Track ACRUX 1 now!
10-day predictions
ACRUX 1 is classified as:


NORAD ID: 44369
Int'l Code: 2019-037E
Perigee: 415.4 km
Apogee: 427.8 km
Inclination: 45.0 °
Period: 92.9 minutes
Semi major axis: 6792 km
RCS: Unknown
Launch date: June 29, 2019
Source: Australia (AUS)
Launch site: Rocket Lab Launch Complex (RLLC)

Uplink (MHz):
Downlink (MHz): 437.200
Beacon (MHz):
Mode: 9600bps GMSK
Call sign: CQ
Status: Inactive

aabbcc
Your satellite tracking list
Your tracking list is empty




NASA's NSSDC Master Catalog

Two Line Element Set (TLE):
1 44369U 19037E   21291.64609975  .00025322  00000-0  43387-3 0  9999
2 44369  45.0040 260.6736 0009168 198.5855 161.4704 15.50776493130099
Source of the keplerian elements: AFSPC